Location: Samoth
(37.3328°N, 88.7876°W)
Time: 12:01:19
(UTC+00:00)

ERS-2 - Pass Details

Date: 29 October 2020
Orbit: 493 x 497 km, 98.6° (Epoch: 04 December)

Event Time Altitude Azimuth Distance (km) Brightness Sun altitude
Rises 23:32:22 0° 10° (N) 2,582 5.5 -7.1°
Reaches altitude 10° 23:34:27 10° 8° (N) 1,696 4.6 -7.5°
Maximum altitude 23:38:04 70° 285° (WNW) 528 2.4 -8.2°
Drops below altitude 10° 23:41:41 10° 201° (SSW) 1,685 5.3 -8.9°
Sets 23:43:44 0° 199° (SSW) 2,563 6.2 -9.3°
